Location: Lawrence Hall of Science
(37.8785°N, 122.2415°W)
Time: 21:36:43
(UTC-08:00)

Cosmos 1461 - Visible Passes

Search period start: 31 January 2015 00:00
Search period end: 10 February 2015 00:00
Orbit: 525 x 668 km, 65.0° (Epoch: 31 January)

Date Brightness Start Highest point End Pass type
(mag) Time Alt. Az. Time Alt. Az. Time Alt. Az.
01 Feb 5.7 05:50:10 10° NNE 05:52:23 14° NE 05:54:48 10° ENE visible
02 Feb 5.3 05:59:24 10° N 06:02:52 22° NE 06:06:31 10° ESE visible
03 Feb 4.5 06:09:05 10° NNW 06:13:13 37° NE 06:17:32 10° ESE visible
04 Feb 3.4 06:19:00 10° NNW 06:23:28 68° ENE 06:28:05 10° SE visible
05 Feb 5.7 04:51:11 10° N 04:53:45 15° NE 04:56:31 10° E visible
05 Feb 3.1 06:29:08 10° NW 06:33:36 66° WSW 06:38:12 10° SSE visible
06 Feb 5.1 05:01:25 14° N 05:04:11 25° NE 05:08:01 10° ESE visible
06 Feb 3.8 06:39:32 10° NW 06:43:40 35° WSW 06:47:52 10° S visible
07 Feb 4.2 05:11:52 21° N 05:14:29 42° NE 05:18:54 10° SE visible
08 Feb 3.2 05:22:27 30° NNW 05:24:40 77° ENE 05:29:19 10° SE visible
08 Feb 5.1 19:24:46 10° S 19:25:11 12° S 19:25:11 12° S visible
09 Feb 5.9 03:56:27 15° ENE 03:56:27 15° ENE 03:58:03 10° E visible
09 Feb 3.1 05:33:10 37° WNW 05:34:45 57° WSW 05:39:18 10° SSE visible
09 Feb 4.1 19:34:16 10° SSW 19:36:22 29° S 19:36:22 29° S visible
